Location: Moreno
(33.9175°N, 117.1578°W)
Time: 15:40:32
(UTC+00:00)

Cosmos 1470 - Pass Details

Date: 18 April 2024
Orbit: 490 x 508 km, 82.5° (Epoch: 20 May)

Event Time Altitude Azimuth Distance (km) Brightness Sun altitude
Rises 12:09:15 0° 353° (N) 2,631 6.5 -13.4°
Reaches altitude 10° 12:11:23 10° 353° (N) 1,739 5.6 -13.0°
Maximum altitude 12:15:12 88° 275° (W) 515 2.6 -12.3°
Drops below altitude 10° 12:18:59 10° 175° (S) 1,716 5.2 -11.6°
Sets 12:21:05 0° 175° (S) 2,593 6.1 -11.2°
